Miscellaneous Local Product
Issued by NWS North Platte, NE

Home | Current Version | Previous Version | Text Only | Print | Product List | Glossary On
Versions: 1 2 3 4 5 6 7 8 9 10 11 12 13 14 15 16 17 18 19 20 21 22 23 24 25 26 27 28 29 30 31 32 33 34 35 36 37 38 39 40 41 42 43 44 45 46 47 48 49 50
000
AXUS43 KLBF 190910
MISLBF


WESTERN AND NORTH CENTRAL NEBRASKA HOURLY WEATHER ROUNDUP
NATIONAL WEATHER SERVICE NORTH PLATTE NE
300 AM CST FRI DEC 19 2014

***STATIONS NOT REPORTING VARIABLES SUCH AS SKY/WEATHER OR
PRESSURE ARE PROVIDED BY THE NEBRASKA DEPARTMENT OF
ROADS...RAWS...AND APRS NETWORKS...AND ARE NOT UNDER
NATIONAL WEATHER SERVICE QUALITY CONTROL***

...OBSERVATIONS IN AND NEAR THE EASTERN PANHANDLE OF NEBRASKA...

CITY           SKY/WX    TMP DP  RH WIND       PRES   REMARKS
PINE RIDGE     CLEAR     28  18  66 W6        30.03S WCI  22
CHADRON        PTCLDY    11   9  92 SW5       30.05S WCI   3
ALLIANCE       PTCLDY     5   2  87 SW3       30.04F
SIDNEY         CLEAR     20  15  81 W7        30.07S WCI  11
WHITECLAY        N/A     21  13  71 CALM        N/A
CRESCENT LAKE    N/A     18  15  86 CALM        N/A
LISCO            N/A     30  25  80 CALM        N/A
BIG SPRINGS      N/A     19  17  90 W6          N/A  WCI  11
$$

...OBSERVATIONS IN NORTH CENTRAL NEBRASKA...

CITY           SKY/WX    TMP DP  RH WIND       PRES   REMARKS
VALENTINE      PTCLDY    11   7  84 SW6       30.05S WCI   1
THEDFORD       MOCLDY    16  14  93 W3        30.08R
AINSWORTH      PTCLDY    14  12  92 S5        30.06R WCI   6
O`NEILL        CLOUDY    28  28  99 S7        30.11S FOG     WCI  21
BROKEN BOW     FOG       25  24  96 SW10      30.11R VSB 1   WCI  15
BROWNLEE         N/A     16  14  92 CALM        N/A
SPRINGVIEW       N/A      9   7  89 CALM        N/A
BREWSTER         N/A     21  21 100 CALM        N/A
ROSE             N/A     26  26 100 MISG        N/A
SARGENT          N/A     25  24  96 CALM        N/A
COMSTOCK         N/A     32  31  94 SW8         N/A  WCI  25
CHAMBERS         N/A     27  26  96 CALM        N/A
$$

...OBSERVATIONS IN SOUTHWEST NEBRASKA AND FAR NORTHEAST COLORADO...

CITY           SKY/WX    TMP DP  RH WIND       PRES   REMARKS
WRAY           FAIR      17  15  89 SW5       30.10F WCI  10
IMPERIAL       CLEAR     18  14  84 W5        30.10S WCI  11
OGALLALA       PTCLDY    13  11  92 W3        30.09S
NORTH PLATTE   PTCLDY    16  12  84 S3        30.11R FOG
MCCOOK         FOG       23  22  96 S6        30.14S VSB 1/4 WCI  16
LEXINGTON      CLOUDY    29  27  94 SW9       30.13S FOG     WCI  20
PAXTON           N/A     18  16  91 CALM        N/A
BRADY            N/A     22  20  92 CALM        N/A
GOTHENBURG       N/A     25  24  95 SW3         N/A
CALLAWAY         N/A     23  22  96 SW3         N/A
$$

...NORTH PLATTE AREA...

CITY           SKY/WX    TMP DP  RH WIND       PRES   REMARKS
AIRPORT        PTCLDY    16  12  84 S3        30.11R FOG
DOWNTOWN         N/A     17  15  90 CALM        N/A
$$

...SOME WEATHER OBSERVATIONS FROM AROUND THE REGION...

CITY           SKY/WX    TMP DP  RH WIND       PRES   REMARKS
DENVER         PTCLDY    26  24  92 SW5       30.06F WCI  20
LARAMIE        PTCLDY    14   9  80 SW7       30.04S WCI   4
CHEYENNE       CLEAR     22  11  62 SW6       30.03F WCI  14
SCOTTSBLUFF    PTCLDY     4   0  83 CALM      30.06S
RAPID CITY     CLEAR     24  16  71 NW3       29.99R
PIERRE         FOG       13  10  88 CALM      30.04S VSB 1/4
WINNER         FAIR      20  15  81 E3        30.05S
SIOUX FALLS    CLOUDY    28  25  88 S9        30.16F WCI  19
OMAHA          CLOUDY    31  28  89 S7        30.25R WCI  24
GRAND ISLAND   CLOUDY    29  26  89 SW12      30.17F WCI  19
KANSAS CITY    CLOUDY    31  30  96 N3        30.26S FOG
WICHITA        CLOUDY    31  28  89 N3        30.23F
HAYS           CLOUDY    32  25  74 S5        30.18S WCI  27
LIBERAL        CLOUDY    36  32  87 CALM      30.18S
GOODLAND       PTCLDY    24  20  84 W7        30.11S WCI  16
$$



USA.gov is the U.S. government's official web portal to all federal, state and local government web resources and services.